Location: Unspecified
(49.8670°N, 0.0000°E)
Time: 08:53:21
(UTC+00:00)

S-56A Canister/Altair - Pass Details

Date: 20 June 2019
Orbit: 632 x 2500 km, 38.9° (Epoch: 23 July)

Event Time Altitude Azimuth Distance (km) Brightness Sun altitude
Rises 16:41:02 0° 229° (SW) 4,768 12.2 30.5°
Reaches altitude 10° 16:45:14 10° 218° (SW) 3,434 11.4 29.8°
Maximum altitude 16:51:34 25° 168° (SSE) 2,007 9.7 28.8°
Drops below altitude 10° 16:56:20 10° 114° (ESE) 2,518 9.7 28.0°
Sets 16:58:55 0° 100° (E) 3,271 10.2 27.6°
